• In Portugal
  • List of Countries
  • For 7 days
  • Water Temperature
  • Satellite Maps
  • Weather Map
  • Weather Widgets
  • user-avatar
    Login

    Hourly Weather Shkoder

    Today, 15 December, Friday

    Time Temperature Precipitation Wind Pressure Humidity
    00:00 +8°C° 0.4 mm 4 mps 738 mmHg 92%
    01:00 +8°C° 0 mm 5 mps 737 mmHg 92%
    02:00 +8°C° 0.2 mm 5 mps 737 mmHg 91%
    03:00 +8°C° 0.2 mm 5 mps 737 mmHg 90%
    04:00 +10°C° 0.2 mm 4 mps 737 mmHg 90%
    05:00 +10°C° 0.2 mm 4 mps 737 mmHg 89%
    06:00 +10°C° 0.2 mm 4 mps 737 mmHg 89%
    07:00 +10°C° 0 mm 3 mps 736 mmHg 89%
    08:00 +10°C° 0.7 mm 4 mps 736 mmHg 90%
    09:00 +10°C° 0.7 mm 4 mps 735 mmHg 90%
    10:00 +9°C° 0.7 mm 5 mps 735 mmHg 90%
    11:00 +10°C° 1.9 mm 6 mps 735 mmHg 91%
    12:00 +10°C° 1.9 mm 6 mps 734 mmHg 92%
    13:00 +10°C° 0 mm 7 mps 734 mmHg 94%
    14:00 +10°C° 1.6 mm 7 mps 733 mmHg 93%
    15:00 +10°C° 1.6 mm 7 mps 733 mmHg 93%
    16:00 +10°C° 1.6 mm 7 mps 733 mmHg 93%
    17:00 +10°C° 1.7 mm 7 mps 733 mmHg 93%
    18:00 +10°C° 1.7 mm 7 mps 732 mmHg 93%
    19:00 +10°C° 1.7 mm 7 mps 732 mmHg 93%
    20:00 +10°C° 2.2 mm 8 mps 732 mmHg 93%
    21:00 +10°C° 2.2 mm 8 mps 732 mmHg 93%
    22:00 +10°C° 2.2 mm 8 mps 731 mmHg 93%
    23:00 +10°C° 2.4 mm 9 mps 731 mmHg 93%

    Tomorrow, 16 December, Saturday

    Time Temperature Precipitation Wind Pressure Humidity
    00:00 +11°C° 2.4 mm 9 mps 731 mmHg 93%
    01:00 +11°C° 2.4 mm 9 mps 730 mmHg 93%
    02:00 +11°C° 2.8 mm 9 mps 730 mmHg 92%
    03:00 +11°C° 2.8 mm 9 mps 730 mmHg 92%
    04:00 +11°C° 2.8 mm 9 mps 730 mmHg 91%
    05:00 +11°C° 3.9 mm 9 mps 730 mmHg 92%
    06:00 +11°C° 3.9 mm 8 mps 730 mmHg 92%
    07:00 +11°C° 3.9 mm 8 mps 730 mmHg 93%
    08:00 +11°C° 3.5 mm 7 mps 731 mmHg 92%
    09:00 +11°C° 3.5 mm 7 mps 731 mmHg 92%
    10:00 +11°C° 3.5 mm 6 mps 732 mmHg 91%
    11:00 +10°C° 2.7 mm 5 mps 732 mmHg 90%
    12:00 +11°C° 2.7 mm 4 mps 732 mmHg 89%
    13:00 +11°C° 2.7 mm 3 mps 732 mmHg 89%
    14:00 +11°C° 1.6 mm 3 mps 732 mmHg 89%
    15:00 +10°C° 1.6 mm 2 mps 732 mmHg 89%
    16:00 +10°C° 1.6 mm 2 mps 732 mmHg 89%
    17:00 +9°C° 0.7 mm 2 mps 733 mmHg 89%
    18:00 +9°C° 0.7 mm 2 mps 733 mmHg 90%
    19:00 +9°C° 0.7 mm 2 mps 733 mmHg 90%
    20:00 +8°C° 0.4 mm 2 mps 734 mmHg 90%
    21:00 +8°C° 0.4 mm 2 mps 734 mmHg 90%
    22:00 +8°C° 0.4 mm 2 mps 734 mmHg 89%
    23:00 +8°C° 0.6 mm 2 mps 734 mmHg 91%

    Day after tomorrow, 17 December, Sunday

    Time Temperature Precipitation Wind Pressure Humidity
    00:00 +8°C° 0.6 mm 2 mps 735 mmHg 92%
    01:00 +8°C° 0.6 mm 2 mps 735 mmHg 93%
    02:00 +7°C° 0.4 mm 2 mps 735 mmHg 93%
    03:00 +7°C° 0.4 mm 2 mps 735 mmHg 93%
    04:00 +7°C° 0.4 mm 2 mps 735 mmHg 92%
    05:00 +7°C° 0.2 mm 2 mps 735 mmHg 92%
    06:00 +6°C° 0.2 mm 2 mps 735 mmHg 92%
    07:00 +7°C° 0.2 mm 1 mps 736 mmHg 91%
    08:00 +6°C° 0.4 mm 2 mps 736 mmHg 87%
    09:00 +7°C° 0.4 mm 2 mps 737 mmHg 83%
    10:00 +8°C° 0.4 mm 2 mps 737 mmHg 79%
    11:00 +8°C° 0.6 mm 2 mps 737 mmHg 79%
    12:00 +8°C° 0.6 mm 2 mps 737 mmHg 79%
    13:00 +8°C° 0.6 mm 2 mps 737 mmHg 78%
    14:00 +7°C° 0.8 mm 2 mps 737 mmHg 81%
    15:00 +7°C° 0.8 mm 2 mps 738 mmHg 84%
    16:00 +5°C° 0.8 mm 3 mps 738 mmHg 88%
    17:00 +5°C° 0.7 mm 3 mps 739 mmHg 87%
    18:00 +4°C° 0.7 mm 4 mps 739 mmHg 87%
    19:00 +4°C° 0.7 mm 4 mps 740 mmHg 87%
    20:00 +3°C° 0.6 mm 5 mps 740 mmHg 86%
    21:00 +2°C° 0.6 mm 5 mps 741 mmHg 85%
    22:00 +2°C° 0.6 mm 6 mps 741 mmHg 84%
    23:00 +1°C° 1 mm 6 mps 742 mmHg 84%

    18 December, Monday

    Time Temperature Precipitation Wind Pressure Humidity
    00:00 +1°C° 1 mm 5 mps 742 mmHg 83%
    01:00 +1°C° 1 mm 5 mps 742 mmHg 83%
    02:00 0°C° 1.1 mm 5 mps 742 mmHg 84%
    03:00 0°C° 1.1 mm 5 mps 743 mmHg 86%
    04:00 0°C° 1.1 mm 4 mps 743 mmHg 87%
    05:00 0°C° 0.3 mm 4 mps 743 mmHg 87%
    06:00 -1°C° 0.3 mm 4 mps 744 mmHg 86%
    07:00 -1°C° 0.3 mm 4 mps 744 mmHg 85%
    08:00 +1°C° 0.1 mm 3 mps 745 mmHg 83%
    09:00 +1°C° 0.1 mm 3 mps 745 mmHg 81%
    10:00 +2°C° 0.1 mm 3 mps 745 mmHg 79%
    11:00 +2°C° 0.1 mm 3 mps 745 mmHg 76%
    12:00 +2°C° 0.1 mm 3 mps 745 mmHg 74%
    13:00 +4°C° 0.1 mm 2 mps 745 mmHg 72%
    14:00 +3°C° 0 mm 2 mps 745 mmHg 74%
    15:00 +2°C° 0 mm 2 mps 745 mmHg 76%
    16:00 +1°C° 0 mm 2 mps 745 mmHg 78%
    17:00 -1°C° 0 mm 2 mps 745 mmHg 78%
    18:00 -1°C° 0 mm 2 mps 745 mmHg 79%
    19:00 -2°C° 0 mm 2 mps 746 mmHg 79%
    20:00 -2°C° 0 mm 2 mps 746 mmHg 78%
    21:00 -3°C° 0 mm 2 mps 747 mmHg 77%
    22:00 -4°C° 0 mm 3 mps 747 mmHg 75%
    23:00 -3°C° 0 mm 2 mps 747 mmHg 74%

    19 December, Tuesday

    Time Temperature Precipitation Wind Pressure Humidity
    00:00 -3°C° 0 mm 2 mps 747 mmHg 72%
    01:00 -3°C° 0 mm 2 mps 747 mmHg 71%
    02:00 -3°C° 0 mm 2 mps 748 mmHg 71%
    03:00 -3°C° 0 mm 2 mps 748 mmHg 70%
    04:00 -3°C° 0 mm 2 mps 748 mmHg 70%
    05:00 -3°C° 0 mm 2 mps 748 mmHg 70%
    06:00 -3°C° 0 mm 2 mps 749 mmHg 70%
    07:00 -4°C° 0 mm 3 mps 749 mmHg 70%
    08:00 -1°C° 0 mm 3 mps 749 mmHg 69%
    09:00 +1°C° 0 mm 2 mps 750 mmHg 68%
    10:00 +3°C° 0 mm 2 mps 750 mmHg 66%
    11:00 +4°C° 0 mm 2 mps 750 mmHg 66%
    12:00 +4°C° 0 mm 2 mps 749 mmHg 66%
    13:00 +4°C° 0 mm 3 mps 749 mmHg 66%
    14:00 +3°C° 0 mm 3 mps 749 mmHg 69%
    15:00 +2°C° 0 mm 3 mps 750 mmHg 73%
    16:00 +1°C° 0 mm 3 mps 750 mmHg 76%
    17:00 0°C° 0 mm 3 mps 750 mmHg 77%
    18:00 -1°C° 0 mm 3 mps 750 mmHg 78%
    19:00 -1°C° 0 mm 3 mps 751 mmHg 79%
    20:00 -1°C° 0 mm 3 mps 751 mmHg 79%
    21:00 -2°C° 0 mm 3 mps 751 mmHg 79%
    22:00 -2°C° 0 mm 3 mps 751 mmHg 79%
    23:00 -3°C° 0 mm 4 mps 752 mmHg 79%

    20 December, Wednesday

    Time Temperature Precipitation Wind Pressure Humidity
    00:00 -3°C° 0 mm 4 mps 752 mmHg 79%
    01:00 -3°C° 0 mm 4 mps 752 mmHg 80%
    02:00 -3°C° 0 mm 4 mps 752 mmHg 79%
    03:00 -3°C° 0 mm 4 mps 752 mmHg 79%
    04:00 -4°C° 0 mm 4 mps 752 mmHg 79%
    05:00 -4°C° 0 mm 4 mps 752 mmHg 79%
    06:00 -4°C° 0 mm 4 mps 752 mmHg 79%
    07:00 -4°C° 0 mm 4 mps 752 mmHg 79%
    08:00 -3°C° 0 mm 4 mps 752 mmHg 76%
    09:00 -2°C° 0 mm 4 mps 753 mmHg 73%
    10:00 -1°C° 0 mm 4 mps 753 mmHg 70%
    11:00 0°C° 0 mm 4 mps 753 mmHg 69%
    12:00 +1°C° 0 mm 4 mps 752 mmHg 68%
    13:00 +1°C° 0 mm 4 mps 752 mmHg 66%
    14:00 0°C° 0 mm 4 mps 752 mmHg 69%
    15:00 0°C° 0 mm 3 mps 752 mmHg 72%
    16:00 -1°C° 0 mm 3 mps 752 mmHg 75%
    17:00 -1°C° 0 mm 3 mps 753 mmHg 76%
    18:00 -2°C° 0 mm 3 mps 753 mmHg 76%
    19:00 -4°C° 0 mm 3 mps 753 mmHg 76%
    20:00 -4°C° 0 mm 3 mps 754 mmHg 75%
    21:00 -4°C° 0 mm 3 mps 754 mmHg 74%
    22:00 -4°C° 0 mm 3 mps 754 mmHg 73%
    23:00 -4°C° 0 mm 3 mps 754 mmHg 71%
    Show more